Location: Aero Estates Airport (historical)
(33.2985°N, 96.8642°W)
Time: 09:26:02
(UTC+00:00)

ISS - Visible Passes

Search period start: 20 January 2026 00:00
Search period end: 30 January 2026 00:00
Orbit: 413 x 424 km, 51.6° (Epoch: 19 January)

Date Brightness Start Highest point End Pass type
(mag) Time Alt. Az. Time Alt. Az. Time Alt. Az.
27 Jan -1.4 00:46:00 10° NNE 00:46:41 10° NNE 00:46:55 10° NNE visible
28 Jan -2.1 01:32:40 10° NNW 01:34:21 24° NNW 01:34:21 24° NNW visible
29 Jan -2.5 00:44:55 10° NNW 00:47:41 23° NE 00:49:00 18° ENE visible
29 Jan -0.5 02:21:32 10° WNW 02:21:59 13° WNW 02:21:59 13° WNW visible
